• In Uzbekistan
  • List of Countries
  • For 7 days
  • Water Temperature
  • Satellite Maps
  • Weather Map
  • Weather Widgets
  • user-avatar
    Login

    Hourly Weather Melbourne

    Today, 30 March, Thursday

    Time Temperature Precipitation Wind Pressure Humidity
    00:00 +12°C° 1.1 mm 3 mps 757 mmHg 89%
    01:00 +12°C° 1.1 mm 2 mps 758 mmHg 91%
    02:00 +12°C° 0.1 mm 2 mps 758 mmHg 91%
    03:00 +11°C° 0.1 mm 3 mps 758 mmHg 91%
    04:00 +11°C° 0 mm 3 mps 758 mmHg 90%
    05:00 +10°C° 0 mm 3 mps 759 mmHg 90%
    06:00 +10°C° 0 mm 3 mps 760 mmHg 90%
    07:00 +10°C° 0 mm 3 mps 760 mmHg 90%
    08:00 +11°C° 0 mm 3 mps 761 mmHg 82%
    09:00 +13°C° 0 mm 3 mps 761 mmHg 74%
    10:00 +15°C° 0 mm 5 mps 761 mmHg 65%
    11:00 +15°C° 0.1 mm 5 mps 761 mmHg 60%
    12:00 +17°C° 0.1 mm 4 mps 761 mmHg 55%
    13:00 +18°C° 0.1 mm 4 mps 761 mmHg 51%
    14:00 +18°C° 0.1 mm 4 mps 761 mmHg 51%
    15:00 +17°C° 0.1 mm 4 mps 762 mmHg 52%
    16:00 +17°C° 0 mm 4 mps 762 mmHg 54%
    17:00 +15°C° 0.1 mm 4 mps 763 mmHg 60%
    18:00 +13°C° 0.1 mm 4 mps 763 mmHg 67%
    19:00 +12°C° 0.1 mm 3 mps 764 mmHg 73%
    20:00 +11°C° 0 mm 3 mps 764 mmHg 77%
    21:00 +11°C° 0 mm 3 mps 764 mmHg 80%
    22:00 +12°C° 0 mm 2 mps 765 mmHg 79%
    23:00 +12°C° 0 mm 2 mps 765 mmHg 80%

    Tomorrow, 31 March, Friday

    Time Temperature Precipitation Wind Pressure Humidity
    00:00 +12°C° 0 mm 2 mps 764 mmHg 81%
    01:00 +12°C° 0 mm 2 mps 764 mmHg 82%
    02:00 +12°C° 0 mm 2 mps 764 mmHg 82%
    03:00 +10°C° 0 mm 2 mps 764 mmHg 83%
    04:00 +10°C° 0 mm 2 mps 764 mmHg 83%
    05:00 +10°C° 0 mm 2 mps 764 mmHg 84%
    06:00 +10°C° 0 mm 2 mps 764 mmHg 85%
    07:00 +9°C° 0 mm 2 mps 765 mmHg 86%
    08:00 +12°C° 0 mm 2 mps 765 mmHg 78%
    09:00 +14°C° 0 mm 2 mps 765 mmHg 70%
    10:00 +16°C° 0 mm 2 mps 765 mmHg 62%
    11:00 +16°C° 0 mm 2 mps 764 mmHg 58%
    12:00 +17°C° 0 mm 2 mps 764 mmHg 55%
    13:00 +18°C° 0 mm 2 mps 763 mmHg 51%
    14:00 +18°C° 0 mm 2 mps 763 mmHg 51%
    15:00 +18°C° 0 mm 2 mps 762 mmHg 51%
    16:00 +18°C° 0 mm 2 mps 762 mmHg 51%
    17:00 +16°C° 0 mm 2 mps 762 mmHg 60%
    18:00 +14°C° 0 mm 1 mps 762 mmHg 69%
    19:00 +12°C° 0 mm 1 mps 762 mmHg 78%
    20:00 +12°C° 0 mm 1 mps 762 mmHg 81%
    21:00 +11°C° 0 mm 1 mps 763 mmHg 85%
    22:00 +10°C° 0 mm 1 mps 763 mmHg 89%
    23:00 +10°C° 0 mm 1 mps 763 mmHg 89%

    Day after tomorrow, 1 April, Saturday

    Time Temperature Precipitation Wind Pressure Humidity
    00:00 +9°C° 0 mm 2 mps 762 mmHg 88%
    01:00 +9°C° 0 mm 2 mps 762 mmHg 88%
    02:00 +9°C° 0 mm 2 mps 762 mmHg 87%
    03:00 +9°C° 0 mm 2 mps 762 mmHg 87%
    04:00 +9°C° 0 mm 2 mps 761 mmHg 87%
    05:00 +10°C° 0 mm 3 mps 762 mmHg 88%
    06:00 +10°C° 0 mm 3 mps 762 mmHg 90%
    07:00 +10°C° 0 mm 3 mps 763 mmHg 91%
    08:00 +12°C° 0 mm 4 mps 763 mmHg 83%
    09:00 +13°C° 0 mm 4 mps 764 mmHg 75%
    10:00 +14°C° 0 mm 4 mps 764 mmHg 67%
    11:00 +15°C° 0 mm 4 mps 764 mmHg 63%
    12:00 +15°C° 0 mm 4 mps 765 mmHg 59%
    13:00 +17°C° 0 mm 4 mps 765 mmHg 55%
    14:00 +15°C° 0 mm 4 mps 765 mmHg 55%
    15:00 +15°C° 0 mm 4 mps 765 mmHg 56%
    16:00 +15°C° 0 mm 4 mps 765 mmHg 56%
    17:00 +14°C° 0 mm 3 mps 766 mmHg 60%
    18:00 +13°C° 0 mm 3 mps 766 mmHg 65%
    19:00 +12°C° 0 mm 3 mps 767 mmHg 70%
    20:00 +12°C° 0 mm 3 mps 767 mmHg 72%
    21:00 +11°C° 0 mm 3 mps 768 mmHg 75%
    22:00 +12°C° 0 mm 2 mps 768 mmHg 77%
    23:00 +12°C° 0 mm 2 mps 768 mmHg 79%

    2 April, Sunday

    Time Temperature Precipitation Wind Pressure Humidity
    00:00 +12°C° 0 mm 2 mps 769 mmHg 80%
    01:00 +12°C° 0 mm 2 mps 769 mmHg 81%
    02:00 +12°C° 0 mm 2 mps 769 mmHg 83%
    03:00 +10°C° 0 mm 2 mps 769 mmHg 84%
    04:00 +10°C° 0 mm 2 mps 769 mmHg 85%
    05:00 +10°C° 0 mm 2 mps 769 mmHg 84%
    06:00 +12°C° 0 mm 2 mps 770 mmHg 82%
    07:00 +12°C° 0 mm 2 mps 770 mmHg 81%
    08:00 +13°C° 0 mm 2 mps 771 mmHg 75%
    09:00 +13°C° 0 mm 3 mps 771 mmHg 68%
    10:00 +14°C° 0 mm 3 mps 771 mmHg 62%
    11:00 +16°C° 0.1 mm 3 mps 771 mmHg 59%
    12:00 +16°C° 0.1 mm 3 mps 771 mmHg 57%
    13:00 +17°C° 0.1 mm 3 mps 771 mmHg 55%
    14:00 +17°C° 0.1 mm 3 mps 771 mmHg 56%
    15:00 +17°C° 0.1 mm 3 mps 771 mmHg 58%
    16:00 +16°C° 0.1 mm 3 mps 771 mmHg 59%
    17:00 +14°C° 0 mm 3 mps 771 mmHg 65%
    18:00 +13°C° 0 mm 3 mps 772 mmHg 70%
    19:00 +12°C° 0 mm 3 mps 772 mmHg 75%
    20:00 +12°C° 0 mm 3 mps 773 mmHg 77%
    21:00 +12°C° 0 mm 2 mps 773 mmHg 78%
    22:00 +12°C° 0 mm 2 mps 773 mmHg 79%
    23:00 +10°C° 0 mm 2 mps 773 mmHg 81%

    3 April, Monday

    Time Temperature Precipitation Wind Pressure Humidity
    00:00 +10°C° 0 mm 2 mps 773 mmHg 83%
    01:00 +9°C° 0 mm 2 mps 773 mmHg 85%
    02:00 +9°C° 0 mm 2 mps 773 mmHg 87%
    03:00 +8°C° 0 mm 2 mps 772 mmHg 88%
    04:00 +8°C° 0 mm 2 mps 772 mmHg 89%
    05:00 +8°C° 0 mm 2 mps 773 mmHg 90%
    06:00 +9°C° 0 mm 1 mps 773 mmHg 90%
    07:00 +9°C° 0 mm 1 mps 773 mmHg 91%
    08:00 +10°C° 0 mm 2 mps 773 mmHg 78%
    09:00 +14°C° 0 mm 2 mps 773 mmHg 66%
    10:00 +16°C° 0 mm 2 mps 773 mmHg 54%
    11:00 +17°C° 0 mm 2 mps 773 mmHg 49%
    12:00 +18°C° 0 mm 2 mps 773 mmHg 45%
    13:00 +20°C° 0 mm 2 mps 772 mmHg 41%
    14:00 +20°C° 0 mm 2 mps 772 mmHg 42%
    15:00 +20°C° 0 mm 2 mps 771 mmHg 43%
    16:00 +20°C° 0 mm 3 mps 771 mmHg 43%
    17:00 +18°C° 0 mm 2 mps 771 mmHg 53%
    18:00 +16°C° 0 mm 2 mps 771 mmHg 62%
    19:00 +14°C° 0 mm 2 mps 772 mmHg 72%
    20:00 +13°C° 0 mm 2 mps 772 mmHg 77%
    21:00 +12°C° 0 mm 2 mps 772 mmHg 83%
    22:00 +12°C° 0 mm 2 mps 772 mmHg 89%
    23:00 +10°C° 0 mm 2 mps 772 mmHg 91%

    4 April, Tuesday

    Time Temperature Precipitation Wind Pressure Humidity
    00:00 +9°C° 0 mm 2 mps 772 mmHg 93%
    01:00 +10°C° 0 mm 1 mps 771 mmHg 95%
    02:00 +9°C° 0 mm 1 mps 771 mmHg 95%
    03:00 +9°C° 0 mm 1 mps 771 mmHg 96%
    04:00 +9°C° 0 mm 1 mps 771 mmHg 96%
    05:00 +9°C° 0 mm 1 mps 771 mmHg 95%
    06:00 +9°C° 0 mm 1 mps 772 mmHg 94%
    07:00 +9°C° 0 mm 1 mps 772 mmHg 93%
    08:00 +13°C° 0 mm 1 mps 772 mmHg 79%
    09:00 +16°C° 0 mm 1 mps 772 mmHg 66%
    10:00 +20°C° 0 mm 1 mps 772 mmHg 52%
    11:00 +22°C° 0 mm 1 mps 771 mmHg 46%
    12:00 +23°C° 0 mm 1 mps 771 mmHg 40%
    13:00 +25°C° 0 mm 1 mps 770 mmHg 34%
    14:00 +25°C° 0 mm 1 mps 770 mmHg 35%
    15:00 +24°C° 0 mm 1 mps 769 mmHg 36%
    16:00 +24°C° 0 mm 2 mps 769 mmHg 36%
    17:00 +20°C° 0 mm 2 mps 769 mmHg 47%
    18:00 +18°C° 0 mm 2 mps 769 mmHg 57%
    19:00 +16°C° 0 mm 2 mps 769 mmHg 67%
    20:00 +15°C° 0 mm 2 mps 769 mmHg 73%
    21:00 +14°C° 0 mm 2 mps 769 mmHg 79%
    22:00 +13°C° 0 mm 2 mps 770 mmHg 85%
    23:00 +12°C° 0 mm 1 mps 769 mmHg 88%
    Show more